Weather History for KRNO - June, 2014

Change the Weather History Date:

Monday, June 2, 2014

  Actual Average Record
Temperature  
Mean Temperature 69 °F 64 °F  
Max Temperature 84 °F 79 °F 96 °F (1970)
Min Temperature 54 °F 49 °F 29 °F (1966)
Degree Days  
Heating Degree Days 0 4  
Month to date heating degree days 0 8  
Since 1 June heating degree days 0 8  
Since 1 July heating degree days 4543 4876  
Cooling Degree Days 4 3  
Month to date cooling degree days 8 6  
Year to date cooling degree days 55 43  
Since 1 June cooling degree days 8 6  
Growing Degree Days 19 (Base 50)    
Moisture  
Dew Point 28 °F    
Average Humidity 28    
Maximum Humidity 45    
Minimum Humidity 10    
Precipitation  
Precipitation 0.00 in 0.02 in 0.26 in (1936)
Month to date precipitation 0.00 0.04  
Year to date precipitation 2.00 3.81  
Snow  
Snow 0.00 in 0.00 in T in (1908)
Month to date snowfall 0.0 0.0  
Since 1 June snowfall 0.0 0.0  
Since 1 July snowfall 6.2 21.8  
Snow Depth 0.00 in    
Sea Level Pressure  
Sea Level Pressure 29.78 in    
Wind  
Wind Speed 8 mph (WNW)    
Max Wind Speed 26 mph    
Max Gust Speed 40 mph    
Visibility 10 miles    
Events      
T = Trace of Precipitation, MM = Missing Value Source: NWS Daily Summary

Daily Weather History Graph

Daily Weather History Graph

Search for Another Location

Airport or City:

Trip Planner

Search our weather history database for the weather conditions in past years. The results will help you decide how hot, cold, wet, or windy it might be!

Date:

Astronomy

Jun. 02, 2014 Rise Set
Actual Time 5:33 AM PDT 8:21 PM PDT
Civil Twilight 5:01 AM PDT 8:53 PM PDT
Nautical Twilight 4:21 AM PDT 9:33 PM PDT
Astronomical Twilight 3:35 AM PDT 10:18 PM PDT
Moon 10:04 AM PDT 11:53 PM PDT
Length of Visible Light 15h 51m
Length of Day
14h 47m
Waxing Crescent, 22% of the Moon is Illuminated
Jun 2
Waxing Crescent
Jun 5
First Quarter
Jun 12
Full
Jun 19
Last Quarter
Jun 27
New

Hourly Weather History & Observations

Time (PDT) Temp. Dew Point Humidity Pressure Visibility Wind Dir Wind Speed Gust Speed Precip Events Conditions
12:55 AM 64.9 °F 28.9 °F 26% 29.79 in 10.0 mi West 5.8 mph - N/A   Clear
1:55 AM 60.1 °F 34.0 °F 38% 29.80 in 10.0 mi Calm Calm - N/A   Clear
2:55 AM 61.0 °F 30.0 °F 31% 29.80 in 10.0 mi West 6.9 mph - N/A   Clear
3:55 AM 55.9 °F 33.1 °F 42% 29.79 in 10.0 mi Calm Calm - N/A   Clear
4:55 AM 55.0 °F 33.1 °F 43% 29.79 in 10.0 mi SSW 5.8 mph - N/A   Clear
5:55 AM 54.0 °F 32.0 °F 43% 29.80 in 10.0 mi SW 3.5 mph - N/A   Clear
6:55 AM 57.0 °F 33.1 °F 40% 29.80 in 10.0 mi ESE 3.5 mph - N/A   Clear
7:55 AM 63.0 °F 30.9 °F 30% 29.79 in 10.0 mi Calm Calm - N/A   Clear
8:55 AM 66.0 °F 30.0 °F 26% 29.79 in 10.0 mi SSE 3.5 mph - N/A   Clear
9:55 AM 71.6 °F 28.4 °F 20% 29.93 in 10.0 mi Calm Calm - N/A   Partly Cloudy
10:55 AM 78.8 °F 26.6 °F 15% 29.92 in 10.0 mi Variable 5.8 mph - N/A   Partly Cloudy
11:55 AM 79.0 °F 24.1 °F 13% 29.74 in 10.0 mi Variable 3.5 mph - N/A   Partly Cloudy
12:55 PM 82.0 °F 24.1 °F 12% 29.72 in 10.0 mi WNW 9.2 mph 16.1 mph N/A   Scattered Clouds
1:55 PM 82.9 °F 23.0 °F 11% 29.70 in 10.0 mi West 15.0 mph 23.0 mph N/A   Scattered Clouds
2:13 PM 82.4 °F 17.6 °F 9% 29.86 in 10.0 mi NNW 11.5 mph - N/A   Scattered Clouds
2:55 PM 80.1 °F 19.0 °F 10% 29.70 in 10.0 mi NW 11.5 mph 17.3 mph N/A   Mostly Cloudy
3:55 PM 79.0 °F 21.0 °F 12% 29.72 in 10.0 mi NNW 15.0 mph - N/A   Mostly Cloudy
4:55 PM 78.1 °F 25.0 °F 14% 29.72 in 10.0 mi West 15.0 mph 26.5 mph N/A   Mostly Cloudy
5:55 PM 80.1 °F 23.0 °F 12% 29.72 in 10.0 mi West 15.0 mph 24.2 mph N/A   Mostly Cloudy
6:55 PM 77.0 °F 27.0 °F 16% 29.73 in 10.0 mi West 19.6 mph 29.9 mph N/A   Mostly Cloudy
7:55 PM 73.0 °F 27.0 °F 18% 29.73 in 10.0 mi WNW 21.9 mph 33.4 mph N/A   Scattered Clouds
8:55 PM 71.1 °F 28.0 °F 20% 29.76 in 10.0 mi WNW 15.0 mph - N/A   Partly Cloudy
9:55 PM 69.1 °F 28.9 °F 22% 29.78 in 10.0 mi NNW 11.5 mph - N/A   Partly Cloudy
10:55 PM 64.9 °F 30.9 °F 28% 29.80 in 10.0 mi North 10.4 mph - N/A   Clear
11:55 PM 63.0 °F 30.9 °F 30% 29.82 in 10.0 mi NNE 5.8 mph - N/A   Clear